Location: Alpine Heights
(32.8181°N, 116.7809°W)
Time: 00:30:07
(UTC+00:00)

IDEFIX/ARIANE 42P - Pass Details

Date: 14 April 2021
Orbit: 785 x 802 km, 98.4° (Epoch: 15 May)

Event Time Altitude Azimuth Distance (km) Brightness Sun altitude
Rises 11:57:20 0° 347° (NNW) 3,288 5.9 -17.0°
Reaches altitude 10° 12:01:10 10° 318° (NW) 2,357 4.8 -16.3°
Maximum altitude 12:03:07 12° 296° (WNW) 2,206 4.5 -15.9°
Enters shadow 12:03:12 12° 295° (WNW) 2,206 4.5 -15.9°
